This is the latest recevied weather packets stored in our database for station/object N7IGG. If no packets are shown the sender has not sent any weather packets the latest 10 day(s).
| Time | Temp. | Humidity | Pressure | Rain* | Wind** | Luminosity | Snow |
|---|---|---|---|---|---|---|---|
| 1777580868 | 16.67° C | 74% | 1019.1 hPa | 0 mm | - | 406 W/m² | - |
| 1777580563 | 17.22° C | 75% | 1019.1 hPa | 0 mm | - | 667 W/m² | - |
| 1777580258 | 15.56° C | 77% | 1019.3 hPa | 0 mm | - | 690 W/m² | - |
| 1777579956 | 16.11° C | 78% | 1019.3 hPa | 0 mm | - | 650 W/m² | - |
| 1777579651 | 15.56° C | 76% | 1019.1 hPa | 0 mm | - | 650 W/m² | - |
| 1777579350 | 16.11° C | 75% | 1019.4 hPa | 0 mm | - | 614 W/m² | - |
| 1777579046 | 17.22° C | 73% | 1019.4 hPa | 0 mm | - | 445 W/m² | - |
| 1777578741 | 16.67° C | 75% | 1019.4 hPa | 0 mm | - | 428 W/m² | - |
| 1777578441 | 16.11° C | 75% | 1019.6 hPa | 0 mm | - | 340 W/m² | - |
| 1777578136 | 16.67° C | 75% | 1019.5 hPa | 0 mm | - | 247 W/m² | - |
| 1777577832 | 15.56° C | 77% | 1019.5 hPa | 0 mm | - | 344 W/m² | - |
| 1777577528 | 15.56° C | 77% | 1019.6 hPa | 0 mm | - | 409 W/m² | - |
| 1777577225 | 15.56° C | 78% | 1019.9 hPa | 0 mm | - | 455 W/m² | - |
| 1777576921 | 15.56° C | 79% | 1019.8 hPa | 0 mm | - | 746 W/m² | - |
| 1777576616 | 15.56° C | 79% | 1020.1 hPa | 0 mm | - | 708 W/m² | - |
| 1777576312 | 15° C | 80% | 1020.1 hPa | 0 mm | - | 623 W/m² | - |
| 1777576008 | 14.44° C | 81% | 1020 hPa | 0 mm | - | 486 W/m² | - |
| 1777575705 | 14.44° C | 81% | 1020.1 hPa | 0 mm | - | 327 W/m² | - |
| 1777575400 | 14.44° C | 80% | 1020.1 hPa | 0 mm | - | 278 W/m² | - |
| 1777575097 | 15° C | 79% | 1020.1 hPa | 0 mm | - | 275 W/m² | - |
| 1777574792 | 15° C | 79% | 1020.2 hPa | 0 mm | - | 313 W/m² | - |
| 1777574491 | 15° C | 78% | 1020.3 hPa | 0 mm | - | 363 W/m² | - |
| 1777574187 | 15° C | 77% | 1020.3 hPa | 0 mm | - | 374 W/m² | - |
| 1777573881 | 15.56° C | 77% | 1020.3 hPa | 0 mm | - | 229 W/m² | - |
| 1777573576 | 15.56° C | 77% | 1020.3 hPa | 0 mm | - | 424 W/m² | - |
* Rain latest hour (hover to see other rain measurements)
** Current wind speed in m/s (hover to see current wind gust speed)